Flag for Netherlands Weather past 2 weeks in Nijmegen, Netherlands

Now
32 °F

Partly cloudy.


Feels Like: 21 °F
Forecast: 21 / 28 °F
Wind: 17 mph from Northeast

Location: Volkel

Current Time: Dec 27, 2014 at 8:24:51 PM

Latest Report: Dec 27, 2014 at 7:55 PM


Visibility: N/A

Pressure: 29.62 "Hg

Humidity: 87%

Dew point: 28 °F

Location of NijmegenLocation

Historic Weather in Nijmegen — Graph

°F

Nijmegen temperature yesterday

Maximum temperature yesterday: 41 °F (at 2:25 PM)
Minimum temperature yesterday: 30 °F (at 5:55 AM)
Average temperature yesterday: 35 °F

Past Weeks' High & Low Weather Summary

 TemperatureHumidityPressure
High55 °F (Dec 18, 3:55 PM)100% (Dec 14, 1:25 AM)30.39 "Hg (Dec 14, 1:25 AM)
Low28 °F (Dec 14, 5:55 AM)66% (Dec 19, 2:55 PM)29.39 "Hg (Dec 27, 8:55 AM)
Average43 °F89%29.96 "Hg
* Reported Dec 12 6:25 PM — Dec 27 6:55 PM, Nijmegen, Weather by CustomWeather, © 2014

Note: Actual official high and low records may vary slightly from our data, if they occured in-between our weather recording intervals... More about our weather records

Advertising

Nijmegen weather history for previous 24 hours

 ConditionsComfort  
Time TempWeatherWind HumidityBarometerVisibility
6:55 PM
Dec 27
32 °FLight snow. Partly cloudy.17 mph100%29.56 "Hg2 mi
6:25 PM32 °FLight snow. Partly cloudy.18 mph100%29.56 "Hg1 mi
6:04 PM34 °FLight snow. Mostly cloudy.18 mph87%29.53 "HgN/A
5:55 PM34 °FMostly cloudy.16 mph87%29.53 "HgN/A
5:25 PM34 °FMostly cloudy.18 mph87%29.53 "HgN/A
5:03 PM34 °FMostly cloudy.16 mph87%29.50 "HgN/A
4:55 PM34 °FMostly cloudy.16 mph87%29.50 "HgN/A
4:25 PM34 °FBroken clouds.16 mph87%29.50 "HgN/A
3:55 PM34 °FMostly cloudy.15 mph87%29.47 "HgN/A
3:25 PM34 °FMore clouds than sun.18 mph93%29.47 "HgN/A
3:00 PM34 °FMostly cloudy.17 mph93%29.45 "HgN/A
2:55 PM34 °FBroken clouds.17 mph93%29.45 "HgN/A
2:25 PM34 °FMostly cloudy.16 mph93%29.45 "HgN/A
1:55 PM34 °FLight snow. Cloudy.16 mph93%29.45 "Hg2 mi
1:25 PM32 °FSnow. Cloudy.17 mph100%29.42 "Hg1 mi
12:56 PM32 °FSnow. Cloudy.16 mph100%29.42 "Hg1 mi
12:55 PM32 °FSnow. Mostly cloudy.16 mph100%29.42 "Hg1 mi
12:25 PM32 °FSnow. More clouds than sun.17 mph100%29.42 "Hg1 mi
11:55 AM32 °FSnow. More clouds than sun.16 mph100%29.42 "Hg0 mi
11:25 AM32 °FSnow. More clouds than sun.18 mph100%29.42 "Hg0 mi
10:55 AM32 °FSnow. Mostly cloudy.18 mph100%29.42 "Hg0 mi
10:25 AM32 °FSnow. More clouds than sun.17 mph100%29.39 "Hg0 mi
9:55 AM32 °FSnow. Mostly cloudy.18 mph100%29.39 "Hg0 mi
9:25 AM32 °FSnow. Mostly cloudy.21 mph100%29.39 "Hg0 mi
8:55 AM32 °FSnow. More clouds than sun.22 mph100%29.39 "Hg0 mi
8:25 AM32 °FSnow. Mostly cloudy.22 mph100%29.42 "Hg0 mi
7:55 AM32 °FSnow. Mostly cloudy.22 mph100%29.42 "Hg0 mi
7:25 AM32 °FSnow. Mostly cloudy.23 mph100%29.42 "Hg0 mi
6:55 AM32 °FSnow. Mostly cloudy.22 mph100%29.45 "Hg0 mi
6:25 AM32 °FSnow. Low clouds.22 mph100%29.47 "Hg0 mi
5:55 AM34 °FSnow. Mostly cloudy.23 mph93%29.53 "Hg0 mi
5:25 AM34 °FSnow. Mostly cloudy.22 mph93%29.56 "Hg1 mi
4:25 AM34 °FLight snow. Mostly cloudy.18 mph100%29.65 "Hg1 mi
3:55 AM36 °FLight rain. Mostly cloudy.17 mph93%29.71 "Hg3 mi
3:25 AM37 °FDrizzle. Mostly cloudy.16 mph87%29.74 "Hg5 mi
2:55 AM37 °FLight rain. Passing clouds.15 mph81%29.77 "HgN/A
2:25 AM37 °FPassing clouds.12 mph81%29.83 "HgN/A
1:55 AM37 °FPassing clouds.12 mph81%29.86 "HgN/A
1:25 AM37 °FPartly cloudy.12 mph81%29.89 "HgN/A
12:55 AM37 °FPartly cloudy.12 mph87%29.92 "HgN/A
12:25 AM37 °FPassing clouds.12 mph87%29.98 "HgN/A
11:55 PM
Dec 26
37 °FOvercast.10 mph87%30.01 "HgN/A
11:25 PM37 °FOvercast.12 mph87%30.04 "HgN/A
10:55 PM37 °FFog.9 mph87%30.07 "Hg6 mi
10:25 PM37 °FFog.10 mph87%30.09 "Hg5 mi
9:55 PM37 °FFog.9 mph93%30.12 "Hg4 mi
9:25 PM36 °FFog.9 mph100%30.12 "Hg3 mi
8:55 PM36 °FFog.8 mph93%30.15 "Hg3 mi
8:25 PM36 °FFog.6 mph100%30.18 "Hg3 mi
Weather by CustomWeather, © 2014

See weather overviewHow to use our weather pages